Location: Rounton
(54.4000°N, 1.3500°W)
Time: 00:21:35
(UTC+01:00)

Vanguard 1 - Pass Details

Date: 25 February 2024
Orbit: 653 x 3825 km, 34.2° (Epoch: 22 April)

Event Time Altitude Azimuth Distance (km) Brightness Sun altitude
Rises 17:08:01 0° 170° (S) 5,217 13.9 2.6°
Reaches altitude 10° 17:15:23 10° 139° (SE) 5,050 13.5 1.6°
Maximum altitude 17:19:04 11° 125° (SE) 5,309 13.5 1.1°
Drops below altitude 10° 17:23:12 10° 110° (ESE) 5,791 13.5 0.5°
Enters shadow 17:34:05 - 85° (E) 7,542 13.9 -1.0°
Sets 17:34:16 0° 85° (E) 7,572 - -1.0°
